• In Austria
  • List of Countries
  • For 7 days
  • Water Temperature
  • Satellite Maps
  • Weather Map
  • News
  • Weather Widgets
  • user-avatar
    Login

    Hourly Weather Blotnica

    Today, 17 August, Friday

    Time Temperature Precipitation Wind Pressure Humidity
    00:00 +20°C° 0 mm 5 mps 760 mmHg 68%
    01:00 +19°C° 0 mm 4 mps 760 mmHg 71%
    02:00 +19°C° 0 mm 4 mps 760 mmHg 72%
    03:00 +19°C° 0 mm 4 mps 760 mmHg 72%
    04:00 +18°C° 0 mm 4 mps 760 mmHg 72%
    05:00 +19°C° 0 mm 5 mps 760 mmHg 71%
    06:00 +20°C° 0 mm 5 mps 760 mmHg 69%
    07:00 +21°C° 0 mm 5 mps 760 mmHg 68%
    08:00 +23°C° 0 mm 4 mps 760 mmHg 63%
    09:00 +26°C° 0 mm 4 mps 760 mmHg 58%
    10:00 +27°C° 0 mm 4 mps 760 mmHg 53%
    11:00 +28°C° 0 mm 3 mps 760 mmHg 50%
    12:00 +29°C° 0 mm 3 mps 760 mmHg 48%
    13:00 +30°C° 0 mm 2 mps 760 mmHg 45%
    14:00 +30°C° 0 mm 2 mps 760 mmHg 46%
    15:00 +30°C° 0 mm 2 mps 760 mmHg 46%
    16:00 +30°C° 0 mm 2 mps 759 mmHg 46%
    17:00 +28°C° 0.1 mm 3 mps 760 mmHg 55%
    18:00 +26°C° 0.1 mm 3 mps 760 mmHg 63%
    19:00 +23°C° 0.1 mm 4 mps 760 mmHg 71%
    20:00 +22°C° 0.7 mm 4 mps 760 mmHg 77%
    21:00 +21°C° 0.7 mm 4 mps 761 mmHg 84%
    22:00 +20°C° 0.7 mm 4 mps 761 mmHg 90%
    23:00 +19°C° 0.1 mm 4 mps 761 mmHg 91%

    Tomorrow, 18 August, Saturday

    Time Temperature Precipitation Wind Pressure Humidity
    00:00 +19°C° 0.1 mm 3 mps 761 mmHg 92%
    01:00 +19°C° 0.1 mm 3 mps 762 mmHg 94%
    02:00 +19°C° 0 mm 3 mps 762 mmHg 94%
    03:00 +19°C° 0 mm 3 mps 762 mmHg 94%
    04:00 +18°C° 0 mm 3 mps 762 mmHg 94%
    05:00 +19°C° 0 mm 3 mps 762 mmHg 90%
    06:00 +19°C° 0 mm 3 mps 763 mmHg 86%
    07:00 +20°C° 0 mm 3 mps 763 mmHg 82%
    08:00 +21°C° 0 mm 3 mps 763 mmHg 75%
    09:00 +21°C° 0 mm 3 mps 764 mmHg 68%
    10:00 +22°C° 0 mm 3 mps 764 mmHg 61%
    11:00 +24°C° 0 mm 3 mps 764 mmHg 58%
    12:00 +24°C° 0 mm 3 mps 764 mmHg 55%
    13:00 +25°C° 0 mm 3 mps 764 mmHg 52%
    14:00 +25°C° 0 mm 3 mps 763 mmHg 51%
    15:00 +24°C° 0 mm 3 mps 763 mmHg 50%
    16:00 +24°C° 0 mm 2 mps 763 mmHg 50%
    17:00 +23°C° 0 mm 2 mps 763 mmHg 55%
    18:00 +21°C° 0 mm 2 mps 763 mmHg 61%
    19:00 +19°C° 0 mm 2 mps 763 mmHg 66%
    20:00 +18°C° 0 mm 2 mps 763 mmHg 67%
    21:00 +18°C° 0 mm 2 mps 764 mmHg 68%
    22:00 +17°C° 0 mm 2 mps 764 mmHg 70%
    23:00 +17°C° 0 mm 3 mps 764 mmHg 69%

    Day after tomorrow, 19 August, Sunday

    Time Temperature Precipitation Wind Pressure Humidity
    00:00 +17°C° 0 mm 3 mps 764 mmHg 69%
    01:00 +17°C° 0 mm 3 mps 764 mmHg 69%
    02:00 +17°C° 0 mm 3 mps 764 mmHg 69%
    03:00 +16°C° 0 mm 3 mps 764 mmHg 69%
    04:00 +16°C° 0 mm 3 mps 764 mmHg 69%
    05:00 +17°C° 0 mm 4 mps 764 mmHg 69%
    06:00 +18°C° 0 mm 4 mps 764 mmHg 68%
    07:00 +19°C° 0 mm 4 mps 764 mmHg 67%
    08:00 +20°C° 0 mm 4 mps 764 mmHg 64%
    09:00 +22°C° 0 mm 4 mps 764 mmHg 62%
    10:00 +23°C° 0 mm 4 mps 764 mmHg 59%
    11:00 +25°C° 0 mm 4 mps 764 mmHg 57%
    12:00 +26°C° 0 mm 4 mps 764 mmHg 56%
    13:00 +26°C° 0 mm 4 mps 763 mmHg 54%
    14:00 +26°C° 0 mm 3 mps 763 mmHg 55%
    15:00 +26°C° 0 mm 3 mps 763 mmHg 55%
    16:00 +26°C° 0 mm 2 mps 763 mmHg 55%
    17:00 +25°C° 0 mm 2 mps 762 mmHg 61%
    18:00 +24°C° 0 mm 2 mps 762 mmHg 67%
    19:00 +22°C° 0 mm 1 mps 762 mmHg 73%
    20:00 +22°C° 0 mm 1 mps 762 mmHg 75%
    21:00 +20°C° 0 mm 2 mps 762 mmHg 76%
    22:00 +19°C° 0 mm 2 mps 762 mmHg 78%
    23:00 +19°C° 0 mm 2 mps 762 mmHg 78%

    20 August, Monday

    Time Temperature Precipitation Wind Pressure Humidity
    00:00 +19°C° 0 mm 2 mps 762 mmHg 77%
    01:00 +19°C° 0 mm 2 mps 762 mmHg 77%
    02:00 +19°C° 0 mm 2 mps 761 mmHg 77%
    03:00 +19°C° 0 mm 3 mps 761 mmHg 77%
    04:00 +19°C° 0 mm 3 mps 761 mmHg 77%
    05:00 +19°C° 0 mm 3 mps 761 mmHg 75%
    06:00 +20°C° 0 mm 3 mps 761 mmHg 72%
    07:00 +21°C° 0 mm 3 mps 761 mmHg 69%
    08:00 +22°C° 0 mm 3 mps 761 mmHg 65%
    09:00 +25°C° 0 mm 3 mps 761 mmHg 61%
    10:00 +26°C° 0 mm 3 mps 761 mmHg 56%
    11:00 +27°C° 0 mm 3 mps 761 mmHg 55%
    12:00 +27°C° 0 mm 3 mps 761 mmHg 54%
    13:00 +28°C° 0 mm 3 mps 761 mmHg 52%
    14:00 +28°C° 0 mm 3 mps 761 mmHg 54%
    15:00 +27°C° 0 mm 3 mps 760 mmHg 57%
    16:00 +27°C° 0 mm 3 mps 760 mmHg 59%
    17:00 +25°C° 0.1 mm 2 mps 760 mmHg 66%
    18:00 +24°C° 0.1 mm 2 mps 760 mmHg 73%
    19:00 +21°C° 0.1 mm 2 mps 760 mmHg 81%
    20:00 +21°C° 0.1 mm 1 mps 760 mmHg 82%
    21:00 +21°C° 0.1 mm 1 mps 760 mmHg 84%
    22:00 +20°C° 0.1 mm 1 mps 760 mmHg 86%
    23:00 +20°C° 0 mm 1 mps 760 mmHg 86%

    21 August, Tuesday

    Time Temperature Precipitation Wind Pressure Humidity
    00:00 +20°C° 0 mm 1 mps 760 mmHg 86%
    01:00 +20°C° 0 mm 1 mps 760 mmHg 86%
    02:00 +19°C° 0 mm 2 mps 760 mmHg 88%
    03:00 +18°C° 0 mm 2 mps 760 mmHg 90%
    04:00 +18°C° 0 mm 3 mps 760 mmHg 92%
    05:00 +18°C° 0 mm 3 mps 760 mmHg 91%
    06:00 +19°C° 0 mm 4 mps 761 mmHg 89%
    07:00 +20°C° 0 mm 4 mps 761 mmHg 87%
    08:00 +20°C° 0.1 mm 5 mps 761 mmHg 81%
    09:00 +21°C° 0.1 mm 6 mps 761 mmHg 75%
    10:00 +22°C° 0.1 mm 6 mps 761 mmHg 69%
    11:00 +22°C° 0 mm 6 mps 761 mmHg 63%
    12:00 +23°C° 0 mm 6 mps 761 mmHg 56%
    13:00 +23°C° 0 mm 6 mps 761 mmHg 50%
    14:00 +23°C° 0 mm 6 mps 761 mmHg 51%
    15:00 +23°C° 0 mm 5 mps 761 mmHg 52%
    16:00 +23°C° 0 mm 5 mps 761 mmHg 53%
    17:00 +22°C° 0 mm 4 mps 761 mmHg 60%
    18:00 +20°C° 0 mm 3 mps 761 mmHg 67%
    19:00 +19°C° 0 mm 2 mps 761 mmHg 74%
    20:00 +18°C° 0 mm 3 mps 761 mmHg 75%
    21:00 +18°C° 0 mm 3 mps 761 mmHg 76%
    22:00 +17°C° 0 mm 3 mps 761 mmHg 77%
    23:00 +17°C° 0 mm 3 mps 761 mmHg 76%

    22 August, Wednesday

    Time Temperature Precipitation Wind Pressure Humidity
    00:00 +17°C° 0 mm 4 mps 761 mmHg 76%
    01:00 +17°C° 0 mm 4 mps 761 mmHg 75%
    02:00 +18°C° 0 mm 4 mps 761 mmHg 73%
    03:00 +18°C° 0 mm 4 mps 761 mmHg 72%
    04:00 +17°C° 0 mm 5 mps 761 mmHg 71%
    05:00 +19°C° 0 mm 5 mps 761 mmHg 69%
    06:00 +20°C° 0 mm 5 mps 761 mmHg 68%
    07:00 +20°C° 0 mm 5 mps 761 mmHg 67%
    08:00 +21°C° 0 mm 5 mps 761 mmHg 68%
    09:00 +22°C° 0 mm 5 mps 761 mmHg 69%
    10:00 +22°C° 0 mm 5 mps 761 mmHg 70%
    11:00 +23°C° 0 mm 5 mps 761 mmHg 66%
    12:00 +25°C° 0 mm 5 mps 761 mmHg 62%
    13:00 +26°C° 0 mm 5 mps 761 mmHg 57%
    14:00 +26°C° 0 mm 5 mps 761 mmHg 59%
    15:00 +25°C° 0 mm 5 mps 761 mmHg 60%
    16:00 +25°C° 0 mm 4 mps 761 mmHg 61%
    17:00 +23°C° 0 mm 4 mps 761 mmHg 67%
    18:00 +21°C° 0 mm 3 mps 761 mmHg 72%
    19:00 +20°C° 0 mm 3 mps 761 mmHg 78%
    20:00 +20°C° 0 mm 3 mps 761 mmHg 80%
    21:00 +19°C° 0 mm 3 mps 762 mmHg 83%
    22:00 +18°C° 0 mm 3 mps 762 mmHg 85%
    23:00 +18°C° 0 mm 2 mps 762 mmHg 86%
    Show more